Wind_Speed
42 41 41 41 41 41 42 43 44 46 47 47 48 49 50 51 52 53 54 55 56 57 59 60 60 61 62 64 64 65 66 67 68 69 70 70 70 69 68 67 67 68 70 70 69 69 69 70 70 70 71 73 77 79 80 80 80 81 82 83 84 85 85 86 86 86 86 87 87 87 86 84 82 80 79 77 77 76 74 74 73 72 72 72 73
41 41 41 41 41 41 42 43 45 46 47 48 49 50 51 52 53 54 55 56 57 58 59 60 61 62 63 64 65 66 67 67 68 68 68 68 67 67 67 68 69 70 70 70 69 70 70 71 71 72 74 76 79 80 81 82 82 83 84 85 86 86 87 87 87 87 86 87 87 86 85 83 81 80 79 78 76 75 73 73 72 71 71 71 72
41 41 41 41 42 42 43 44 45 46 47 48 49 50 52 53 54 55 56 57 58 59 60 61 62 63 64 65 66 67 67 66 66 66 66 66 66 67 68 69 70 70 70 70 71 72 72 73 74 75 76 78 80 82 83 84 84 85 85 86 86 87 88 88 88 88 87 86 85 84 83 82 81 80 79 77 75 74 72 71 71 70 70 71 71
42 42 42 42 42 43 44 45 46 47 48 48 50 51 52 54 55 56 57 59 60 60 61 62 63 64 65 66 66 66 65 65 67 68 68 67 67 68 69 71 72 71 71 71 72 74 75 76 77 78 79 80 82 83 84 84 85 85 85 86 87 88 88 89 89 88 87 85 83 82 82 82 81 80 78 77 74 73 71 70 70 69 70 71 71
43 43 42 42 43 44 45 46 47 48 49 50 51 53 54 55 56 57 59 60 60 61 62 63 64 65 66 66 65 63 64 67 70 71 70 70 70 70 72 73 74 73 73 73 75 77 78 79 80 80 82 83 84 84 84 84 84 85 85 86 87 88 89 89 89 87 86 84 83 82 82 82 81 79 77 76 73 71 70 69 69 69 69 70 70
44 43 43 43 43 44 46 47 49 50 51 53 54 55 56 57 58 59 60 61 61 62 63 63 64 65 65 64 63 64 66 69 71 70 70 72 73 74 75 76 77 76 76 76 77 79 80 81 81 82 84 85 85 84 84 84 84 84 85 86 87 88 89 89 88 86 85 84 83 83 83 82 80 78 76 75 73 70 69 68 68 68 69 69 69
45 44 44 44 44 45 46 48 50 52 53 54 55 56 57 58 59 60 61 62 63 64 64 64 63 63 63 63 64 66 68 69 68 69 71 73 75 76 77 79 80 79 79 79 80 81 81 81 82 84 85 85 85 84 84 83 84 84 85 86 87 88 88 87 86 85 85 84 84 83 83 82 79 77 75 74 72 71 70 68 67 67 67 68 68
46 46 45 46 46 47 48 50 52 54 55 56 57 58 58 60 61 62 63 64 65 65 65 64 62 62 63 65 67 68 67 67 68 70 73 75 76 78 80 82 83 82 82 82 82 81 81 82 83 84 85 85 85 85 84 83 84 85 86 87 87 87 87 86 86 85 85 84 84 84 83 80 78 76 74 73 71 71 70 70 68 66 66 67 68
47 47 47 47 48 49 50 51 53 55 57 58 58 59 60 61 63 64 65 66 67 66 65 63 62 62 65 67 68 68 67 69 72 73 75 77 79 82 84 86 86 84 82 82 82 82 82 83 84 85 85 85 85 84 84 84 85 85 86 87 87 87 86 86 85 85 84 84 83 83 81 78 76 74 73 72 71 71 70 69 68 67 66 66 67
48 49 49 49 49 50 51 52 54 55 57 58 59 60 61 62 63 65 66 67 67 67 65 63 63 64 67 67 67 67 70 73 75 75 77 79 83 85 87 87 85 81 80 81 81 81 83 84 85 85 84 84 84 84 84 85 85 85 86 86 86 86 85 85 85 84 84 83 82 81 79 76 74 73 71 71 71 71 69 69 68 67 67 66 66
49 50 50 51 52 52 52 52 53 54 55 56 57 58 60 61 63 65 66 67 67 66 65 65 66 67 67 66 67 71 74 75 76 77 80 83 85 87 86 84 81 79 79 80 80 81 83 84 84 84 84 84 84 84 85 85 85 85 86 86 85 85 84 84 84 83 83 82 81 80 78 75 72 71 71 71 71 70 69 68 68 67 68 67 66
50 51 52 52 52 51 51 51 51 52 53 54 55 57 59 61 63 65 66 67 67 67 67 68 68 67 66 67 71 75 76 76 78 80 83 85 86 85 83 81 79 79 79 79 80 82 83 83 83 84 83 83 84 85 85 85 85 85 85 84 83 83 83 83 83 82 82 81 80 78 76 74 72 71 72 72 71 69 69 68 68 68 68 68 67
51 51 51 50 49 48 48 49 49 50 51 52 53 55 57 59 61 63 65 66 67 68 68 68 67 68 69 72 74 75 76 78 81 83 84 85 84 83 81 80 79 79 79 80 81 82 82 82 83 83 83 83 84 84 84 84 85 85 84 83 82 82 82 82 82 81 81 80 79 77 75 74 72 72 73 72 70 69 68 68 68 68 68 69 68
50 49 48 48 47 47 47 48 49 50 51 52 54 56 58 60 62 63 64 66 67 67 68 69 69 69 70 71 73 74 77 80 82 83 84 84 83 82 80 79 78 78 79 80 81 81 81 81 82 82 83 84 84 83 83 84 84 84 83 82 81 81 82 82 82 81 80 79 77 76 74 74 73 72 73 72 71 69 69 68 68 69 69 69 68
48 48 47 47 48 48 49 50 51 53 54 56 57 58 60 61 62 63 64 64 65 65 66 67 67 67 69 72 75 77 79 81 83 84 84 83 81 80 79 78 78 79 80 80 80 80 80 81 82 82 83 83 82 83 83 84 84 83 81 81 81 82 82 81 80 80 79 78 77 75 75 74 74 73 73 73 71 70 70 69 69 69 69 68 68
48 48 48 49 50 51 52 52 53 55 56 58 59 60 60 60 60 61 62 62 63 63 63 65 67 70 73 75 77 78 80 82 83 83 82 81 80 79 78 78 79 80 80 79 79 79 79 81 82 83 82 81 81 83 84 84 83 81 81 81 81 82 81 80 79 79 79 78 77 76 76 75 74 72 72 73 72 71 70 69 69 70 70 69 68
50 50 50 51 53 55 56 56 56 56 56 58 59 60 61 61 61 61 61 61 61 61 63 67 72 75 76 76 78 79 81 82 82 81 80 79 79 80 80 80 80 80 78 77 78 79 81 82 83 82 81 80 81 82 83 82 82 81 81 81 82 81 79 78 78 78 78 78 77 76 76 74 72 72 72 73 73 72 71 70 70 71 71 70 69
53 53 53 54 56 57 58 59 58 57 57 58 60 61 62 63 63 63 62 61 61 62 67 73 75 76 77 78 80 81 80 80 79 79 79 80 81 82 82 80 79 78 77 78 79 81 82 83 82 81 80 79 80 80 81 81 82 82 82 82 82 80 78 77 78 78 78 78 77 76 75 73 71 71 72 73 74 73 73 72 72 72 72 72 71
54 55 55 56 57 58 59 60 60 60 59 59 59 61 64 66 65 63 61 60 64 69 73 75 76 77 79 80 80 79 78 78 78 79 80 82 83 82 81 80 79 78 79 80 81 82 82 81 80 79 78 78 79 79 80 81 82 82 83 83 81 78 77 77 78 78 78 78 77 75 73 72 71 71 71 72 73 74 74 74 73 73 73 72 72
54 55 56 57 58 59 60 61 61 61 60 60 60 63 65 65 63 61 61 64 69 72 74 75 77 79 79 78 78 77 77 78 80 81 82 82 81 81 81 81 81 81 81 82 82 82 80 78 77 77 77 77 78 79 80 81 82 82 82 82 80 78 78 79 79 79 79 78 76 74 72 71 71 71 71 72 73 73 75 75 74 74 74 73 72
55 56 58 59 60 61 62 62 62 61 61 61 62 64 64 62 60 61 63 67 69 71 74 76 78 78 77 76 76 77 79 80 82 82 81 81 81 82 83 83 82 82 82 82 81 79 77 76 76 76 77 78 79 80 80 80 81 81 81 80 80 80 81 81 81 81 80 77 75 73 72 70 70 70 71 72 73 74 75 75 75 74 74 73 72
58 59 60 61 61 62 62 62 62 62 62 63 63 62 62 62 62 63 66 68 69 72 74 76 76 76 76 77 78 80 81 81 81 81 82 82 83 83 83 83 82 82 81 80 78 77 76 76 76 77 78 78 79 79 79 79 80 80 80 81 82 83 84 83 82 81 79 77 75 73 71 70 69 70 71 73 74 74 75 75 75 75 74 74 73
62 62 63 63 62 62 62 62 63 63 64 64 63 62 63 63 63 65 68 70 73 75 76 77 77 78 79 80 81 81 81 82 82 83 83 83 83 83 82 81 81 80 80 79 78 77 77 77 78 78 78 78 78 78 78 78 79 80 81 82 84 85 85 85 83 80 79 77 75 73 71 70 70 70 72 73 74 74 75 75 76 75 75 74 73
63 64 64 64 63 64 64 64 64 64 63 62 61 62 64 65 66 69 71 73 75 76 78 79 80 81 82 83 83 83 84 84 84 83 82 82 81 81 80 80 80 80 80 79 78 78 78 78 78 78 77 77 77 77 77 78 80 81 82 83 85 85 85 84 82 80 79 77 75 73 71 71 71 72 73 74 74 75 75 76 76 76 75 74 73
64 64 64 64 65 65 66 66 65 64 63 61 61 63 64 64 67 71 75 76 78 79 81 83 84 85 85 84 84 84 84 83 83 82 82 81 81 80 80 80 80 80 80 79 78 78 78 77 77 77 77 76 77 77 78 79 81 82 83 84 85 84 83 81 80 79 78 76 75 74 73 73 74 74 75 75 76 76 76 76 76 76 75 74 73
64 64 65 65 66 66 66 65 64 62 60 60 61 63 65 67 69 73 76 78 80 82 84 85 86 86 85 85 85 84 84 83 83 83 83 82 81 81 80 80 79 79 79 78 78 77 77 77 76 76 76 77 78 79 80 81 82 84 84 84 84 82 81 79 79 78 77 76 75 75 75 75 76 77 77 77 77 77 77 76 76 76 75 74 73
64 65 65 65 65 65 64 63 62 60 58 59 61 64 67 69 72 74 77 79 81 82 83 84 85 85 85 86 86 85 85 84 84 83 82 81 80 80 79 79 79 78 78 77 76 76 76 76 76 77 78 80 81 82 83 84 84 84 84 84 83 81 79 77 77 76 76 76 77 77 77 78 78 78 78 78 78 78 78 77 77 76 75 74 72
64 64 65 65 64 63 62 62 61 60 59 60 61 63 66 69 71 74 77 79 81 82 83 84 85 85 85 85 85 85 84 83 82 81 81 80 79 79 78 78 77 77 76 75 74 75 75 76 78 79 81 82 83 84 85 85 85 84 83 82 81 79 77 76 76 76 76 77 78 79 79 79 79 79 80 79 79 79 79 78 77 76 75 74 72
63 63 63 63 62 62 61 61 60 60 61 61 63 65 68 71 73 75 77 79 80 80 81 82 83 83 83 83 83 82 81 80 80 80 79 78 78 77 77 76 75 74 74 74 75 76 78 79 80 82 83 84 84 85 85 85 84 83 82 80 79 78 77 76 76 77 78 79 79 80 80 81 81 81 81 81 81 80 80 78 77 75 74 73 71
62 62 61 61 61 61 61 61 61 61 62 63 65 67 69 71 72 74 75 77 78 79 79 80 80 81 81 80 80 79 79 79 78 78 78 77 77 76 75 74 74 74 75 77 78 79 81 82 84 85 86 86 86 86 85 84 83 82 80 79 78 77 77 77 78 79 80 81 81 81 82 83 83 83 83 82 81 80 79 78 76 75 73 72 69
61 60 60 60 60 60 61 61 62 63 64 65 67 68 69 71 72 74 75 76 77 77 78 78 78 78 78 78 78 78 78 78 77 77 76 75 75 74 74 75 75 77 78 80 81 82 84 85 87 87 88 87 87 86 85 83 82 81 80 79 78 78 79 80 80 82 83 83 83 84 84 84 84 84 83 83 81 80 79 78 76 74 73 71 69
60 60 60 61 62 62 63 64 64 66 67 68 69 70 71 72 73 74 74 75 75 76 76 76 76 76 76 77 77 77 77 76 76 75 74 74 74 75 75 77 79 80 81 83 85 86 88 89 89 89 89 88 86 85 84 83 82 81 81 81 81 81 81 82 82 84 84 84 85 85 85 85 85 84 83 82 81 80 79 78 76 74 72 71 69
62 62 63 64 64 65 65 66 67 68 69 69 70 71 71 72 72 73 73 74 74 74 75 75 75 75 75 76 76 75 75 74 74 74 74 75 75 76 77 79 81 82 84 87 89 90 91 92 92 91 90 88 87 85 84 83 82 82 81 82 82 81 82 82 83 83 84 84 85 85 85 84 84 84 83 82 81 80 79 77 75 74 72 70 69
63 64 64 65 66 67 67 68 68 69 69 69 69 69 69 70 71 71 72 72 73 74 74 74 75 74 74 74 74 74 74 74 74 75 75 76 77 78 80 82 84 86 89 91 92 93 93 93 92 91 90 88 87 85 84 82 82 81 81 81 81 81 81 82 83 83 83 83 83 82 82 82 82 82 82 81 80 78 76 74 72 71 69 67 66
64 65 66 66 67 67 68 67 67 67 67 67 67 68 68 69 70 71 72 72 73 73 73 73 73 74 73 74 74 74 74 74 75 75 76 78 79 81 83 86 88 91 92 94 94 94 93 93 91 90 88 86 84 83 82 81 80 80 80 80 81 82 82 82 82 82 81 80 80 80 80 81 80 80 79 77 75 73 70 69 68 67 65 64 62
65 66 67 67 66 66 65 65 65 65 65 66 67 68 69 70 71 71 72 72 72 72 72 73 73 73 73 73 73 73 74 75 76 77 78 80 83 85 88 90 92 93 94 94 94 93 91 89 87 85 83 82 80 79 79 79 79 80 80 81 81 80 80 80 79 79 79 79 79 79 79 78 78 76 75 72 70 68 65 64 64 63 61 60 58
66 66 65 65 64 64 63 64 64 65 66 67 68 69 70 70 70 70 70 71 71 71 71 72 71 71 71 72 72 74 75 76 78 80 82 84 87 89 91 93 93 93 93 92 90 87 85 82 80 79 78 78 77 77 77 78 79 79 79 79 78 77 77 77 78 78 77 77 76 76 76 75 73 72 70 68 66 64 62 61 60 59 57 56 54
63 63 62 62 62 63 63 64 65 66 67 68 68 68 69 69 69 69 69 69 69 70 70 70 70 70 71 72 73 75 77 79 81 84 86 88 90 91 92 91 91 89 87 84 81 79 77 76 76 75 75 75 76 76 76 77 77 76 76 75 75 76 76 76 75 75 75 74 73 72 71 70 69 68 66 65 62 61 59 58 57 56 54 52 50
60 60 61 62 63 64 65 65 66 66 66 66 67 67 67 67 68 68 68 68 68 68 68 69 70 71 72 73 75 77 80 83 85 88 90 90 91 90 89 87 84 82 79 77 75 74 73 73 73 73 74 74 74 74 74 74 74 74 74 74 74 74 73 73 72 71 71 70 69 68 67 65 65 64 63 62 60 59 57 56 55 53 51 49 47
60 61 62 63 63 64 64 64 65 65 65 65 65 65 65 66 65 65 65 66 66 67 68 69 71 72 74 76 78 81 84 87 89 90 90 89 88 86 83 81 78 77 75 74 73 73 73 73 73 73 73 73 73 73 72 72 73 73 73 72 71 70 70 69 68 66 65 64 63 63 62 62 61 61 61 60 60 58 57 55 54 51 49 46 44
61 62 62 63 63 63 63 63 64 64 64 64 64 64 64 64 64 64 65 65 66 67 69 71 72 75 77 80 82 85 87 89 90 89 88 86 84 81 79 77 76 75 74 73 73 73 73 73 73 72 72 72 72 72 72 72 71 71 70 68 67 66 65 64 63 61 61 60 59 59 59 60 60 60 59 58 56 54 51 50 48 46 44 41 39
61 62 62 62 62 62 62 62 63 63 63 62 62 62 62 62 63 64 65 66 67 69 71 73 76 78 81 84 86 87 89 89 88 86 84 82 80 78 77 76 75 74 74 74 73 73 72 72 72 72 72 72 71 71 70 69 68 66 64 63 61 60 60 59 59 58 57 57 57 57 58 59 58 56 53 49 46 43 41 40 38 37 36 34 33
61 60 61 61 61 61 61 61 61 61 61 61 61 61 62 63 64 65 66 67 69 71 74 76 79 82 84 86 87 88 88 87 85 83 81 79 77 76 76 75 75 74 73 73 72 71 71 70 70 70 70 70 69 68 67 65 63 60 57 56 55 55 55 56 56 55 54 55 56 56 55 53 50 47 43 40 37 34 33 31 30 28 27 27 27
59 59 60 60 60 60 60 59 59 59 59 60 60 61 63 64 65 66 67 69 71 74 77 80 82 84 86 87 87 87 86 84 82 80 78 77 76 75 75 74 74 73 72 71 70 69 68 68 67 67 67 67 67 65 63 60 55 52 50 49 51 52 52 52 52 51 52 52 52 50 46 43 40 38 35 32 29 27 25 23 21 20 20 20 20
58 59 59 59 59 59 58 58 58 59 60 60 61 62 63 64 66 67 69 72 75 77 80 82 84 85 86 86 86 85 84 81 79 77 76 76 75 74 74 73 72 71 70 69 68 67 66 65 65 65 65 65 63 60 56 52 47 44 44 45 47 49 49 48 47 47 48 48 45 40 37 35 33 30 27 23 20 18 16 14 13 14 15 15 15
58 59 58 58 57 57 57 58 59 60 61 62 62 63 64 66 68 70 72 75 77 80 82 83 85 86 86 86 86 84 81 79 78 77 76 75 74 74 72 71 70 68 67 66 65 64 63 62 62 62 62 60 57 53 48 44 40 40 41 42 44 45 45 44 43 43 43 41 37 33 31 29 26 23 19 16 12 10 8 8 8 9 10 10 11
58 57 56 56 56 56 58 59 60 61 62 63 63 65 66 68 70 73 75 78 80 82 83 85 86 86 87 86 85 83 80 78 77 76 75 74 73 72 70 68 67 65 64 63 62 61 61 60 59 58 56 53 49 45 41 38 36 37 38 39 41 42 41 40 39 38 38 35 31 28 26 23 20 16 13 10 7 5 4 4 5 6 7 8 8
56 55 55 56 57 58 59 60 61 62 62 63 65 66 69 71 73 76 78 80 82 83 85 86 87 87 87 86 84 82 80 78 77 76 74 73 71 69 67 65 63 62 60 60 59 58 57 55 53 51 49 46 43 39 36 34 34 34 35 36 37 38 37 36 35 33 32 30 27 24 21 18 16 13 10 7 4 2 1 3 4 5 5 6 6
55 55 56 57 59 60 60 61 62 63 64 65 67 69 71 74 76 78 80 82 83 85 86 87 88 88 88 86 84 81 79 78 76 75 73 70 68 65 63 60 59 58 57 56 55 54 51 49 47 45 44 42 39 35 32 32 32 32 32 33 33 34 33 32 31 29 28 26 24 21 18 15 12 9 7 4 2 1 1 2 3 4 4 5 5
56 57 58 59 60 61 61 62 63 64 66 68 70 72 74 76 77 79 81 83 85 86 88 88 89 89 88 85 83 80 78 77 75 72 70 67 64 61 58 56 55 54 52 51 49 47 46 45 44 43 42 39 35 32 30 31 31 31 30 30 30 29 29 28 28 26 24 23 21 19 16 12 10 7 5 4 2 2 2 2 3 3 3 4 4
59 60 60 61 62 62 62 63 65 67 69 71 73 75 76 78 79 81 83 85 87 88 89 90 90 89 87 84 81 79 77 74 72 69 65 62 59 56 54 52 51 49 47 45 44 44 44 44 43 42 40 36 32 29 29 29 29 29 29 28 27 26 26 25 24 23 21 20 18 16 14 11 9 7 5 4 4 3 2 2 1 2 2 3 3
Wind_Direction
281 281 281 280 279 279 278 277 276 276 275 274 272 272 272 272 272 273 274 275 276 277 278 280 281 282 284 285 286 287 288 289 290 291 292 293 294 294 295 295 296 296 296 297 298 300 301 302 303 304 305 305 305 305 305 305 306 306 306 307 307 307 307 308 308 309 310 311 312 312 313 314 316 317 317 317 316 315 314 314 313 312 313 313 314
284 284 284 283 282 281 280 279 278 277 276 275 274 273 273 273 274 274 275 276 277 278 279 280 282 283 284 286 287 288 289 290 291 292 294 294 295 295 296 296 296 296 296 297 299 301 302 303 304 304 304 304 304 305 305 306 306 306 306 306 306 306 307 307 308 309 310 311 312 312 314 316 317 317 317 317 315 314 314 313 312 312 313 313 313
286 286 285 285 285 284 282 281 279 278 276 275 275 274 274 275 275 276 276 277 277 279 280 281 283 284 285 286 287 289 290 291 292 294 295 295 296 296 296 296 296 296 297 299 301 302 303 303 303 303 303 303 304 305 305 306 306 305 305 305 305 306 306 307 308 309 310 311 311 313 315 317 317 317 316 316 314 314 313 312 312 312 312 313 313
286 285 284 284 285 284 283 281 280 279 277 277 276 275 275 276 276 276 277 278 279 280 282 283 284 285 286 287 288 290 292 293 293 293 295 296 297 298 299 299 298 298 299 300 301 302 302 302 302 302 302 303 304 304 305 304 304 303 304 304 305 306 307 308 308 309 310 311 312 314 316 317 317 316 315 314 313 313 312 311 311 312 312 313 313
285 284 284 283 283 283 282 282 281 279 279 278 277 276 276 277 277 277 278 279 280 281 282 283 284 286 287 288 290 292 292 292 292 293 295 296 297 299 301 302 301 301 300 301 301 300 300 299 300 301 302 302 302 303 303 302 302 303 303 305 306 307 307 307 308 309 310 311 313 315 316 316 316 315 313 312 312 311 311 311 311 312 312 313 313
284 284 283 283 282 282 282 282 281 280 279 278 277 277 277 278 278 279 280 280 281 282 283 284 286 288 289 291 292 293 292 291 292 294 294 295 297 299 301 303 303 302 302 300 299 297 296 297 298 300 300 300 300 301 301 302 302 303 304 305 306 307 307 307 308 310 311 313 315 316 316 316 315 314 312 311 311 310 309 310 311 312 312 313 313
284 284 283 283 283 282 282 282 281 280 279 278 278 278 278 279 279 280 280 281 281 282 283 285 287 289 291 292 292 292 291 292 293 293 293 294 295 297 300 302 302 302 301 299 297 295 294 295 297 298 298 299 299 300 301 302 303 304 305 306 307 307 307 308 309 310 312 314 315 315 315 315 314 312 311 310 310 309 309 310 311 311 312 312 313
283 283 283 283 283 283 283 282 281 280 280 279 279 279 279 280 280 281 281 281 282 283 284 286 288 289 290 289 288 290 292 294 294 293 292 291 293 297 299 301 301 300 298 297 295 293 293 294 296 297 298 299 299 300 302 303 304 305 305 306 306 307 307 309 310 311 312 313 314 314 314 314 313 311 310 310 309 309 309 310 311 311 311 312 312
282 282 283 283 283 282 282 281 281 280 280 280 280 281 281 282 282 282 282 283 283 284 286 287 288 287 287 287 289 291 294 295 294 292 290 291 295 298 299 298 298 297 296 295 293 291 292 294 295 297 298 299 300 301 302 303 304 305 306 306 306 307 308 309 310 311 312 313 314 314 314 313 312 310 310 309 308 308 309 310 311 311 311 312 312
281 282 282 282 282 281 281 281 280 280 280 281 281 282 282 282 282 283 284 284 285 285 286 287 286 286 288 290 291 292 293 292 291 290 291 294 296 296 295 295 295 295 294 292 290 290 292 294 295 297 299 299 300 301 302 303 304 305 305 306 307 307 308 309 310 311 312 313 313 313 313 312 311 309 309 307 307 308 309 310 310 310 311 312 313
281 282 282 281 281 280 280 279 279 279 280 281 281 282 282 282 283 284 285 285 285 285 285 286 287 288 290 291 291 290 290 290 291 292 293 294 294 292 292 293 293 292 291 289 289 290 292 294 296 298 299 300 300 301 302 303 304 305 305 306 307 308 308 309 310 311 311 312 313 312 311 311 310 308 307 306 306 307 308 309 310 310 311 311 312
281 281 281 280 279 278 277 277 277 278 278 279 280 280 280 281 282 283 284 285 285 285 286 287 288 289 290 289 289 289 290 291 292 292 292 291 291 291 292 291 290 289 288 288 289 291 294 296 297 298 299 300 300 301 303 303 304 304 305 306 307 308 308 309 310 311 311 312 312 311 310 310 309 307 306 306 306 307 308 309 309 310 310 311 312
282 281 280 279 278 277 277 277 277 277 278 278 278 279 280 281 282 283 284 285 285 285 286 287 288 289 289 289 289 290 291 291 290 289 289 289 290 290 290 289 288 288 288 289 291 293 295 297 298 298 299 299 301 302 303 303 303 304 305 306 307 307 308 309 310 310 311 311 310 310 309 308 307 307 305 305 305 306 307 308 308 309 310 311 312
282 282 281 280 280 280 279 279 279 280 280 279 279 279 280 281 283 284 284 284 285 286 286 287 288 290 290 289 289 289 289 288 287 287 288 289 289 288 288 288 288 289 290 291 292 294 296 296 297 298 299 300 301 302 302 302 303 304 305 306 307 307 308 309 309 309 309 309 308 308 308 307 306 306 305 304 304 305 306 307 308 308 309 311 312
283 283 283 283 283 283 283 283 284 283 282 280 280 280 282 283 284 284 284 284 284 284 284 286 287 288 287 287 288 288 287 287 287 287 287 287 286 287 288 288 289 289 290 292 293 294 295 296 297 298 299 300 301 301 302 302 303 304 305 306 306 307 308 309 309 308 308 308 308 308 307 306 306 305 304 303 304 305 306 307 308 308 309 311 311
285 285 285 285 285 285 285 285 283 282 281 282 283 284 285 285 284 283 283 282 282 283 284 285 285 285 286 286 287 287 287 286 285 285 285 285 286 287 288 288 289 290 291 292 293 295 295 296 297 298 299 301 301 301 301 301 302 304 304 305 306 307 308 308 307 307 307 307 308 307 307 306 306 305 304 304 304 305 306 307 307 308 309 310 311
286 286 286 286 287 287 287 286 285 283 283 283 283 283 283 283 282 282 281 281 282 283 284 284 284 285 286 287 287 286 285 284 283 283 284 285 286 287 288 288 289 291 293 293 294 295 296 296 297 298 299 300 300 300 301 301 302 303 304 305 305 306 307 307 305 305 306 307 307 307 306 306 305 304 304 303 304 305 306 307 307 307 309 310 310
286 286 287 287 287 288 288 288 288 286 284 282 282 281 281 282 283 282 282 283 284 284 283 283 284 286 287 286 285 284 282 281 282 283 284 285 286 287 288 289 291 293 293 293 294 295 295 296 297 298 299 299 299 300 301 302 302 303 304 304 305 306 306 305 304 305 306 306 306 306 305 304 304 303 303 303 303 304 305 306 306 307 308 309 309
286 287 287 287 287 287 287 287 287 286 284 282 281 281 281 283 284 284 284 284 283 282 282 283 284 285 285 284 282 281 280 281 281 282 283 285 286 288 290 291 293 293 293 293 294 294 295 296 297 298 298 299 300 300 301 302 302 303 303 304 304 305 304 303 303 304 304 305 305 304 304 303 302 301 302 302 302 303 304 305 306 307 307 308 308
287 287 287 287 287 287 286 285 285 284 282 281 280 279 280 282 284 284 283 282 281 282 282 283 283 283 282 280 279 279 279 280 281 283 285 287 288 290 291 292 293 292 292 293 293 294 296 297 297 298 299 299 300 301 301 302 302 303 303 304 304 303 302 302 303 303 303 304 303 303 302 301 300 300 300 301 301 302 302 304 305 306 306 306 306
288 288 287 287 286 285 284 283 283 282 282 281 281 281 281 281 281 281 281 281 281 281 281 281 281 280 279 278 278 278 279 281 283 285 287 289 290 291 292 292 292 292 292 293 294 295 296 297 298 299 299 300 300 301 301 302 302 302 302 303 303 302 302 302 302 302 303 303 302 301 301 300 299 299 299 299 300 301 301 303 304 304 304 304 304
288 287 286 285 283 283 282 281 281 281 281 281 280 279 279 279 280 280 280 280 279 279 279 279 279 278 277 277 278 279 281 283 285 288 289 290 291 292 292 292 292 293 294 295 296 297 297 298 299 299 299 300 300 301 301 301 301 301 302 301 301 301 301 301 302 302 302 302 301 301 300 299 298 298 298 298 299 300 301 301 302 302 302 303 303
287 286 284 283 282 281 280 280 280 281 282 281 281 280 279 280 280 280 279 278 278 278 277 277 276 276 277 279 280 282 284 286 288 290 291 291 292 292 293 293 294 295 296 297 298 298 298 299 299 299 299 299 300 300 300 300 300 300 300 300 300 300 301 301 301 301 301 300 300 300 299 298 297 297 296 297 298 299 300 300 300 301 302 302 302
285 284 283 282 281 281 280 280 280 280 279 278 277 276 277 278 278 277 276 275 274 274 274 275 276 278 280 282 283 285 287 289 290 291 291 292 293 294 295 296 296 297 297 298 299 299 299 299 299 299 299 299 299 299 299 299 299 299 299 299 300 300 301 301 301 301 300 300 299 299 298 297 296 296 296 297 298 299 299 299 300 301 301 301 301
284 283 283 282 281 281 281 281 280 279 278 276 275 276 276 275 274 273 272 272 272 273 275 277 279 280 282 284 286 287 289 290 291 292 293 294 295 295 296 297 297 298 298 299 299 299 299 299 299 299 299 299 299 299 299 299 299 299 299 299 299 299 300 300 300 300 299 299 298 298 297 297 297 297 297 298 298 299 299 299 300 299 299 299 299
284 283 282 282 281 281 281 280 280 279 278 277 276 275 274 273 271 271 272 273 274 275 277 278 280 282 284 286 288 289 291 292 293 293 294 294 295 295 296 297 297 298 299 299 299 299 299 299 299 299 300 300 300 300 299 299 298 298 298 298 298 299 299 299 298 298 298 297 297 297 297 297 297 297 298 298 299 299 299 298 298 298 298 298 299
283 282 282 281 280 280 280 279 279 278 276 274 273 271 271 271 271 272 273 274 275 276 278 280 282 284 286 287 288 290 290 291 292 292 293 294 295 296 296 297 297 298 298 299 299 299 300 300 301 301 301 301 301 300 300 299 299 298 298 298 298 298 298 297 297 296 296 296 296 296 296 297 297 297 298 298 298 298 297 297 297 297 297 297 298
282 281 280 279 279 279 279 279 279 278 278 276 275 273 272 272 272 273 274 275 276 278 280 282 283 284 285 286 287 288 289 290 291 292 293 294 295 296 296 297 297 298 298 298 299 300 300 301 301 301 301 301 301 300 300 299 299 299 298 298 298 298 297 296 295 295 295 295 295 296 296 296 297 297 297 297 297 297 297 297 297 297 297 297 297
281 280 279 280 280 280 280 281 281 280 279 278 276 275 274 274 274 275 276 277 279 280 281 282 283 284 285 286 287 288 289 291 292 293 294 295 295 296 296 296 297 297 298 298 298 299 300 301 301 301 301 300 300 300 299 299 299 299 298 298 297 297 296 295 294 294 294 294 294 295 296 296 296 296 296 296 297 297 296 296 296 296 296 296 296
282 282 282 282 282 283 283 282 282 281 279 278 277 276 276 277 277 278 279 279 280 281 282 283 284 285 286 287 288 290 291 292 293 293 294 294 295 295 296 296 296 297 297 298 299 300 300 301 301 300 300 300 300 299 299 298 298 298 297 297 296 296 295 294 294 294 294 294 295 295 295 295 295 296 296 296 296 296 296 295 295 295 295 295 295
284 284 284 284 283 283 282 282 281 280 279 279 279 279 279 279 279 280 280 281 282 283 283 284 285 286 288 289 290 291 292 292 293 293 294 295 295 296 296 296 296 297 297 298 299 300 300 300 300 300 300 299 299 299 298 298 297 297 296 295 294 294 294 294 294 294 294 295 295 295 295 295 295 295 296 295 295 295 295 294 294 294 294 294 293
284 284 283 283 282 282 281 281 281 280 280 280 280 280 280 280 281 281 282 283 283 284 285 286 287 288 289 290 291 292 292 293 294 294 295 295 296 296 296 296 297 298 299 299 299 300 300 300 299 299 299 299 299 298 298 297 296 295 295 294 294 294 294 294 295 295 296 296 296 296 296 296 295 295 295 295 295 294 294 294 294 293 293 292 291
282 281 281 281 281 281 281 281 280 280 280 280 280 281 281 282 282 283 284 285 286 286 287 288 289 290 291 291 292 293 293 294 295 295 295 296 296 296 297 297 298 299 299 300 300 300 299 299 299 299 299 299 298 298 297 296 295 295 294 294 294 295 295 295 295 295 295 296 296 295 295 295 295 295 295 295 294 294 294 293 293 292 291 290 289
279 280 280 280 280 280 280 281 281 281 281 282 282 283 283 284 284 285 286 286 287 288 289 289 290 291 292 292 293 293 294 294 295 295 295 296 296 297 298 299 299 300 300 299 299 299 299 299 299 299 299 299 298 298 297 296 296 295 295 295 295 295 295 295 295 295 295 294 294 294 294 294 294 293 293 293 293 293 293 292 291 290 289 288 287
279 279 280 280 280 280 281 281 282 282 283 283 284 284 284 285 285 286 286 287 288 289 290 291 292 292 293 293 293 294 294 295 295 295 296 297 298 299 300 300 300 300 299 299 299 299 299 299 299 299 299 299 298 298 298 297 297 297 297 296 296 296 296 296 296 296 295 295 295 295 294 294 293 293 293 292 292 292 291 290 288 287 287 287 287
279 279 280 280 280 281 282 282 283 283 283 284 284 285 285 286 286 287 288 289 290 290 291 292 292 293 293 294 294 295 295 295 296 297 298 299 300 301 301 301 300 300 299 299 299 299 299 299 299 299 299 299 299 298 298 298 298 298 298 298 298 298 298 298 298 297 297 297 296 296 295 294 294 293 293 292 292 291 289 288 286 286 285 285 285
279 279 280 280 281 281 282 282 283 283 284 284 285 286 286 287 288 289 290 290 291 291 292 292 293 293 294 295 295 296 297 297 298 300 301 301 301 301 301 300 300 300 299 299 299 299 299 300 300 300 300 300 299 299 299 299 299 299 299 300 300 300 300 299 299 299 298 298 297 296 296 295 294 294 293 292 291 290 288 286 285 285 284 284 283
279 279 280 280 281 282 282 283 284 284 285 286 286 287 288 289 290 291 291 291 292 293 293 293 294 294 295 296 297 298 299 300 301 302 302 302 301 301 301 300 300 300 300 300 300 300 300 301 301 301 301 300 300 299 299 300 300 300 301 301 301 301 300 300 300 299 299 298 297 297 296 295 294 293 292 291 290 289 287 285 284 283 282 282 281
279 280 280 281 282 283 283 284 285 286 286 287 288 289 290 290 291 292 292 293 293 294 294 295 295 296 297 298 299 300 301 301 302 302 302 302 302 301 301 301 301 301 301 301 301 301 301 301 301 301 301 300 300 300 300 301 301 302 302 302 302 301 301 301 300 300 299 299 298 297 296 295 294 293 292 291 289 288 286 284 282 281 280 278 277
280 280 281 283 283 284 285 286 287 287 288 289 290 290 291 291 292 293 293 294 294 295 296 296 297 298 299 300 301 302 302 302 302 303 303 303 303 302 302 302 302 302 302 302 302 302 301 301 301 301 301 301 301 301 301 302 302 303 303 303 302 302 302 301 301 301 300 300 299 298 297 296 294 293 292 291 289 287 285 283 280 278 276 274 273
281 282 283 284 285 285 286 287 288 289 290 290 291 291 292 292 293 294 295 295 296 297 297 299 300 301 301 302 302 302 303 303 304 304 304 304 303 303 303 303 303 303 303 302 302 301 301 301 301 301 301 301 301 301 302 303 303 304 303 303 303 303 303 303 303 303 302 301 300 299 299 298 297 296 294 292 290 287 284 281 278 275 272 269 268
283 284 284 285 286 287 288 289 290 290 291 291 291 292 292 293 294 295 296 297 297 298 299 300 301 302 302 302 303 303 304 304 305 305 304 304 304 304 304 304 304 303 303 302 301 301 300 300 300 300 300 301 301 302 303 304 304 305 304 304 304 305 305 306 306 306 305 304 303 303 302 301 299 298 295 293 290 287 284 280 276 272 267 264 261
284 285 286 287 288 289 290 290 290 290 290 291 291 292 293 294 295 296 297 298 299 300 301 301 302 302 303 303 304 305 305 306 305 305 305 304 305 305 305 304 303 303 302 301 301 300 300 300 300 300 300 301 302 303 304 305 305 305 305 305 306 307 308 309 309 308 308 307 307 306 304 303 301 300 298 295 292 288 283 278 273 267 261 257 256
285 286 287 289 290 290 290 290 290 290 291 291 292 293 294 295 296 297 299 300 300 301 301 302 302 303 304 304 305 306 306 306 306 305 305 305 305 305 304 303 303 302 301 300 300 300 299 299 299 300 300 302 303 304 305 305 305 305 305 306 308 310 311 311 310 310 310 310 309 308 307 306 306 305 303 300 295 288 281 275 267 260 254 251 251
287 288 289 290 290 290 290 290 290 291 292 292 293 294 296 297 298 299 300 300 300 301 302 302 303 304 305 306 306 307 307 307 306 306 306 306 306 305 304 303 302 301 300 300 300 299 299 300 300 301 302 303 304 304 305 304 304 305 306 309 311 313 313 313 312 313 314 314 313 312 312 313 313 313 311 307 300 290 281 272 262 253 248 244 243
288 289 290 290 290 290 290 290 291 292 293 294 295 296 297 298 299 299 300 300 301 302 302 303 304 305 306 307 307 308 307 307 307 307 307 306 306 305 304 303 301 301 300 300 300 300 300 301 301 302 302 303 304 304 304 303 303 305 308 312 314 316 316 316 315 317 319 319 318 318 319 320 320 320 320 316 309 299 286 269 252 241 234 231 232
289 290 290 290 290 290 291 291 292 293 294 295 296 297 298 299 299 299 300 301 302 303 304 304 305 306 307 308 308 308 308 308 308 308 307 306 305 304 303 302 301 300 300 300 300 301 301 302 302 302 302 302 302 302 301 301 302 305 310 314 317 318 319 319 319 322 325 326 324 324 326 327 327 327 328 326 321 310 283 246 225 220 220 221 221
289 289 289 290 290 291 291 292 293 294 295 296 297 298 298 298 299 299 300 301 302 303 304 305 306 307 308 309 309 309 309 309 308 308 307 306 304 303 302 301 301 301 301 301 301 302 302 303 303 302 301 301 301 300 298 298 301 305 311 315 319 321 322 323 324 327 331 333 332 331 332 334 335 335 337 338 335 316 235 209 205 206 207 203 198
288 289 289 290 290 291 292 293 294 295 296 296 296 297 297 297 298 299 301 302 303 304 305 306 307 308 309 309 309 309 309 308 308 307 306 305 304 303 302 301 301 301 302 302 302 303 304 304 303 301 300 299 298 296 294 295 300 305 310 315 320 323 326 327 329 331 335 338 339 339 339 341 343 345 348 350 347 335 185 184 183 180 180 182 186
288 288 289 290 290 291 292 293 294 295 295 295 295 296 296 297 299 300 301 302 303 304 305 306 307 308 309 309 309 308 308 308 307 306 305 304 303 302 301 301 301 302 303 303 304 304 304 304 302 301 299 297 293 291 290 294 298 303 308 313 318 324 328 331 334 336 339 343 345 347 348 350 352 354 358 7 21 55 100 126 143 159 173 180 181
287 288 289 289 290 291 292 293 293 294 294 294 295 296 297 298 299 301 302 303 303 304 305 307 308 308 309 308 308 307 307 306 305 304 303 302 301 301 301 301 302 303 304 304 304 305 305 305 303 300 297 293 288 286 287 291 296 301 305 309 314 321 327 332 336 340 343 346 350 354 358 3 8 15 24 38 53 66 82 105 145 176 175 166 158
Height
5757 5756 5755 5754 5753 5752 5752 5751 5750 5750 5749 5749 5749 5748 5748 5747 5746 5745 5744 5743 5742 5740 5738 5737 5735 5734 5732 5730 5728 5726 5723 5721 5719 5716 5713 5711 5708 5706 5703 5701 5698 5695 5692 5689 5687 5684 5681 5678 5675 5672 5669 5665 5660 5655 5651 5648 5644 5640 5636 5632 5628 5625 5621 5617 5614 5609 5601 5594 5589 5584 5581 5578 5572 5566 5563 5558 5554 5550 5546 5541 5537 5532 5527 5522 5516
5751 5751 5750 5749 5748 5747 5746 5746 5745 5745 5745 5744 5744 5743 5742 5741 5740 5739 5738 5737 5735 5734 5732 5731 5729 5727 5725 5723 5721 5719 5716 5714 5711 5708 5706 5703 5700 5698 5695 5693 5690 5687 5684 5681 5679 5676 5673 5669 5666 5663 5660 5656 5651 5647 5643 5639 5635 5631 5628 5624 5620 5616 5612 5607 5604 5601 5596 5589 5581 5575 5571 5567 5562 5557 5553 5550 5547 5543 5540 5535 5530 5525 5520 5514 5509
5746 5745 5744 5743 5743 5742 5741 5741 5740 5740 5739 5739 5738 5737 5736 5735 5734 5733 5732 5730 5729 5727 5726 5724 5722 5721 5718 5716 5714 5711 5708 5706 5703 5701 5698 5695 5693 5690 5688 5685 5682 5678 5675 5672 5670 5667 5664 5660 5657 5655 5651 5647 5642 5638 5634 5630 5627 5623 5619 5615 5611 5606 5602 5598 5594 5591 5588 5583 5576 5569 5562 5557 5552 5548 5544 5542 5539 5536 5533 5529 5524 5519 5513 5508 5502
5740 5740 5739 5738 5737 5737 5736 5736 5735 5734 5734 5733 5732 5731 5730 5729 5728 5727 5725 5724 5723 5721 5719 5718 5716 5714 5711 5708 5706 5703 5701 5698 5695 5693 5690 5687 5685 5682 5679 5676 5673 5669 5666 5663 5660 5657 5654 5651 5648 5645 5642 5637 5633 5629 5625 5622 5618 5615 5611 5606 5602 5597 5592 5587 5584 5581 5578 5575 5570 5562 5555 5549 5544 5540 5536 5534 5531 5528 5525 5522 5518 5513 5507 5501 5495
5735 5735 5734 5733 5732 5732 5731 5730 5730 5729 5728 5727 5726 5725 5724 5723 5722 5720 5719 5718 5716 5714 5712 5711 5708 5706 5703 5700 5698 5696 5693 5690 5687 5684 5682 5679 5676 5674 5670 5667 5663 5660 5657 5654 5651 5648 5645 5642 5639 5635 5632 5628 5624 5620 5616 5613 5609 5605 5601 5598 5593 5587 5582 5577 5573 5570 5567 5564 5560 5554 5548 5543 5538 5533 5528 5526 5524 5522 5518 5514 5510 5506 5500 5494 5488
5731 5730 5729 5728 5727 5726 5726 5725 5724 5723 5722 5721 5720 5719 5718 5716 5715 5714 5713 5711 5709 5707 5705 5703 5701 5698 5695 5693 5691 5688 5686 5683 5679 5676 5673 5670 5668 5664 5661 5658 5655 5652 5649 5646 5643 5639 5636 5632 5629 5626 5622 5618 5615 5612 5608 5604 5600 5596 5592 5588 5584 5578 5572 5567 5563 5560 5556 5553 5549 5544 5540 5536 5531 5525 5520 5517 5516 5514 5511 5509 5504 5498 5493 5488 5482
5725 5725 5724 5723 5722 5721 5721 5720 5718 5717 5716 5715 5714 5712 5711 5710 5709 5707 5706 5704 5702 5700 5698 5696 5693 5691 5689 5686 5684 5681 5678 5674 5671 5669 5666 5662 5659 5656 5653 5650 5647 5644 5641 5637 5633 5630 5627 5623 5620 5616 5613 5609 5606 5602 5599 5595 5591 5587 5583 5579 5575 5569 5563 5558 5554 5550 5546 5542 5539 5535 5532 5528 5522 5517 5512 5509 5506 5504 5501 5501 5500 5494 5486 5480 5475
5720 5719 5718 5717 5716 5716 5715 5713 5712 5711 5710 5709 5707 5706 5705 5704 5702 5700 5698 5696 5695 5693 5691 5688 5686 5685 5682 5679 5676 5673 5670 5666 5663 5660 5657 5654 5651 5648 5645 5642 5639 5636 5632 5628 5625 5621 5617 5614 5610 5607 5603 5600 5596 5593 5590 5586 5582 5577 5574 5570 5565 5560 5554 5549 5544 5540 5536 5533 5530 5526 5523 5519 5513 5508 5504 5500 5497 5494 5491 5489 5489 5486 5481 5475 5468
5715 5713 5713 5712 5711 5709 5708 5707 5706 5704 5703 5702 5701 5700 5699 5697 5695 5693 5691 5689 5687 5685 5683 5682 5680 5677 5675 5672 5668 5665 5662 5658 5655 5652 5649 5645 5642 5640 5637 5634 5631 5628 5624 5620 5616 5612 5608 5604 5601 5598 5594 5590 5586 5583 5580 5577 5573 5569 5565 5560 5555 5550 5545 5540 5535 5531 5527 5525 5522 5518 5514 5510 5505 5500 5496 5492 5488 5486 5483 5480 5478 5475 5472 5468 5462
5709 5708 5707 5706 5704 5703 5702 5700 5699 5698 5697 5696 5695 5693 5692 5690 5688 5686 5684 5682 5680 5678 5676 5675 5672 5670 5667 5664 5660 5657 5654 5651 5648 5644 5641 5637 5634 5631 5628 5626 5623 5620 5616 5612 5607 5603 5599 5595 5592 5589 5585 5581 5576 5573 5570 5567 5564 5560 5555 5551 5546 5540 5536 5531 5526 5522 5518 5516 5513 5509 5505 5502 5497 5491 5488 5484 5480 5477 5475 5472 5469 5465 5462 5459 5456
5703 5702 5701 5699 5698 5696 5695 5693 5692 5691 5690 5689 5688 5686 5685 5683 5681 5679 5677 5675 5673 5671 5669 5667 5665 5662 5659 5656 5653 5651 5647 5643 5640 5636 5632 5629 5626 5623 5620 5617 5614 5611 5607 5603 5598 5594 5590 5586 5583 5580 5576 5572 5567 5563 5560 5557 5554 5550 5546 5542 5537 5531 5526 5522 5517 5513 5510 5508 5505 5500 5495 5493 5489 5484 5479 5476 5472 5470 5467 5464 5460 5457 5453 5449 5448
5696 5695 5694 5692 5691 5690 5688 5686 5685 5684 5683 5682 5681 5679 5677 5676 5674 5672 5670 5668 5666 5664 5662 5659 5657 5654 5652 5649 5646 5643 5639 5635 5631 5627 5624 5621 5617 5614 5611 5609 5606 5602 5599 5594 5590 5586 5582 5578 5574 5571 5567 5562 5558 5554 5550 5547 5544 5540 5537 5533 5528 5523 5518 5513 5508 5503 5501 5498 5495 5492 5487 5483 5480 5476 5470 5467 5464 5462 5459 5456 5451 5448 5444 5440 5437
5689 5688 5687 5685 5684 5682 5681 5680 5679 5677 5676 5675 5674 5672 5670 5668 5666 5664 5663 5661 5659 5657 5654 5652 5650 5647 5645 5642 5639 5635 5631 5626 5622 5618 5615 5612 5608 5606 5603 5600 5597 5594 5590 5586 5582 5578 5574 5570 5566 5562 5558 5553 5548 5544 5540 5537 5533 5530 5528 5524 5520 5515 5510 5506 5500 5496 5493 5490 5486 5483 5480 5475 5472 5467 5461 5457 5456 5454 5451 5448 5443 5439 5436 5432 5428
5681 5680 5679 5677 5676 5675 5674 5673 5672 5670 5669 5667 5666 5664 5662 5661 5659 5657 5656 5654 5652 5650 5648 5645 5643 5640 5637 5634 5630 5627 5623 5618 5613 5609 5606 5603 5599 5597 5595 5592 5589 5586 5582 5578 5574 5570 5566 5561 5557 5554 5549 5544 5539 5534 5530 5527 5524 5521 5518 5515 5510 5506 5502 5497 5491 5487 5485 5482 5479 5476 5472 5467 5463 5460 5454 5449 5447 5446 5443 5440 5436 5431 5428 5424 5420
5673 5672 5671 5670 5669 5668 5667 5667 5666 5664 5662 5660 5659 5658 5656 5655 5653 5651 5649 5647 5645 5643 5640 5637 5635 5632 5629 5626 5622 5619 5615 5609 5604 5601 5597 5594 5590 5589 5587 5584 5581 5578 5574 5570 5565 5562 5558 5553 5549 5544 5540 5535 5529 5524 5520 5518 5515 5512 5509 5505 5501 5498 5494 5489 5482 5477 5475 5472 5470 5467 5463 5459 5454 5450 5445 5440 5438 5437 5434 5431 5427 5423 5420 5417 5413
5665 5664 5663 5662 5661 5660 5660 5660 5659 5657 5655 5653 5652 5651 5650 5648 5645 5643 5641 5639 5637 5635 5632 5630 5627 5624 5621 5617 5614 5611 5607 5601 5596 5592 5588 5585 5582 5580 5579 5577 5573 5569 5566 5561 5557 5553 5549 5544 5539 5535 5531 5526 5520 5514 5511 5508 5505 5503 5500 5497 5493 5490 5487 5481 5473 5469 5466 5462 5460 5457 5453 5449 5445 5440 5435 5430 5428 5427 5425 5422 5418 5414 5411 5409 5406
5657 5657 5656 5655 5654 5652 5651 5651 5651 5650 5648 5647 5645 5644 5642 5639 5638 5635 5633 5631 5629 5627 5625 5622 5619 5616 5612 5609 5606 5603 5599 5593 5587 5583 5579 5576 5573 5571 5570 5568 5565 5561 5557 5552 5548 5544 5540 5535 5530 5526 5522 5517 5512 5506 5502 5498 5495 5493 5491 5489 5485 5483 5480 5473 5465 5461 5458 5454 5451 5447 5443 5439 5435 5431 5426 5420 5417 5416 5414 5412 5409 5404 5401 5399 5397
5650 5650 5649 5648 5646 5645 5643 5642 5642 5642 5640 5638 5637 5635 5633 5631 5629 5627 5625 5623 5621 5619 5616 5613 5610 5608 5605 5601 5597 5594 5590 5585 5579 5575 5571 5567 5564 5561 5560 5559 5556 5553 5548 5543 5539 5536 5531 5526 5521 5517 5513 5508 5503 5498 5493 5488 5485 5484 5482 5479 5477 5476 5472 5465 5458 5455 5450 5446 5443 5439 5435 5431 5427 5423 5418 5413 5408 5405 5403 5402 5400 5395 5392 5389 5386
5643 5642 5642 5641 5639 5638 5636 5635 5634 5633 5631 5629 5627 5626 5624 5622 5620 5618 5616 5615 5613 5610 5608 5605 5602 5600 5596 5592 5589 5585 5581 5576 5571 5567 5563 5558 5555 5551 5549 5548 5547 5543 5539 5534 5531 5527 5523 5518 5513 5509 5504 5499 5494 5490 5485 5480 5476 5474 5471 5469 5468 5467 5462 5456 5451 5448 5443 5439 5436 5432 5427 5424 5419 5415 5411 5406 5401 5396 5393 5391 5389 5386 5383 5380 5375
5637 5636 5634 5634 5632 5630 5629 5627 5626 5624 5623 5621 5620 5618 5616 5614 5612 5610 5609 5607 5605 5602 5600 5597 5594 5591 5588 5584 5580 5576 5572 5568 5562 5558 5554 5550 5545 5541 5538 5537 5536 5533 5529 5526 5523 5519 5514 5510 5505 5500 5495 5490 5486 5481 5477 5472 5468 5464 5461 5459 5457 5455 5451 5447 5444 5440 5436 5433 5429 5424 5420 5416 5412 5408 5403 5399 5394 5390 5385 5382 5380 5377 5373 5371 5368
5631 5629 5628 5627 5625 5623 5621 5619 5618 5616 5615 5613 5611 5609 5608 5606 5605 5603 5601 5599 5597 5594 5591 5589 5586 5582 5579 5575 5571 5567 5563 5558 5554 5549 5544 5540 5535 5531 5528 5527 5524 5521 5519 5517 5514 5510 5506 5501 5497 5491 5486 5481 5477 5473 5469 5465 5460 5456 5453 5450 5447 5443 5439 5436 5433 5430 5426 5424 5421 5417 5414 5410 5405 5400 5396 5391 5387 5383 5379 5375 5373 5370 5366 5363 5360
5624 5622 5620 5619 5617 5615 5613 5611 5610 5608 5606 5605 5604 5602 5600 5599 5597 5595 5592 5590 5588 5585 5583 5580 5577 5574 5570 5566 5562 5557 5553 5549 5545 5540 5535 5530 5526 5521 5518 5516 5512 5509 5508 5507 5504 5501 5497 5493 5489 5483 5478 5474 5470 5465 5461 5457 5452 5448 5445 5441 5437 5433 5428 5426 5424 5420 5416 5413 5411 5408 5405 5402 5398 5393 5388 5384 5380 5376 5372 5369 5365 5362 5359 5356 5352
5615 5614 5612 5610 5608 5606 5605 5603 5601 5600 5598 5597 5595 5594 5592 5590 5589 5587 5585 5582 5580 5577 5574 5571 5568 5565 5561 5556 5551 5547 5543 5539 5535 5530 5526 5521 5516 5512 5507 5504 5501 5498 5497 5496 5494 5490 5487 5484 5480 5475 5471 5467 5463 5459 5455 5450 5445 5440 5436 5431 5427 5422 5417 5414 5413 5410 5407 5404 5401 5399 5396 5393 5389 5385 5381 5377 5372 5369 5365 5361 5357 5353 5350 5347 5344
5606 5604 5602 5601 5599 5597 5596 5594 5593 5591 5590 5589 5588 5586 5584 5583 5581 5578 5576 5573 5571 5567 5564 5561 5558 5555 5551 5546 5541 5536 5533 5529 5525 5521 5516 5511 5507 5502 5498 5494 5490 5487 5486 5486 5484 5480 5477 5474 5470 5466 5462 5459 5455 5451 5448 5443 5438 5433 5429 5424 5418 5413 5407 5402 5399 5397 5395 5393 5391 5389 5387 5383 5379 5376 5372 5368 5364 5360 5356 5352 5348 5344 5341 5338 5335
5597 5595 5594 5592 5590 5588 5587 5585 5584 5583 5582 5581 5579 5578 5576 5574 5572 5569 5567 5564 5561 5558 5555 5552 5549 5545 5540 5535 5530 5526 5523 5519 5515 5510 5506 5502 5498 5493 5489 5485 5481 5477 5476 5475 5473 5470 5467 5464 5460 5457 5453 5450 5446 5443 5439 5435 5430 5424 5420 5415 5409 5404 5399 5394 5389 5386 5383 5381 5379 5377 5375 5372 5368 5365 5362 5358 5354 5351 5346 5342 5339 5335 5331 5329 5326
5588 5586 5585 5583 5581 5580 5578 5576 5575 5574 5573 5572 5571 5569 5566 5564 5562 5559 5557 5554 5552 5549 5545 5542 5538 5535 5530 5526 5521 5517 5513 5509 5505 5500 5497 5493 5489 5485 5481 5477 5473 5469 5466 5464 5462 5459 5457 5454 5451 5447 5444 5440 5436 5433 5429 5426 5421 5416 5411 5406 5400 5396 5391 5385 5380 5377 5374 5371 5368 5365 5363 5360 5357 5354 5350 5347 5344 5340 5336 5333 5330 5326 5322 5319 5318
5579 5577 5576 5574 5572 5571 5569 5567 5566 5565 5564 5563 5561 5559 5557 5555 5552 5550 5547 5544 5542 5538 5535 5531 5528 5524 5521 5516 5512 5508 5504 5500 5496 5492 5488 5484 5481 5477 5473 5469 5465 5462 5459 5455 5452 5449 5446 5443 5439 5435 5432 5428 5424 5421 5417 5414 5411 5407 5402 5397 5392 5387 5383 5377 5372 5368 5365 5361 5358 5355 5352 5349 5346 5343 5340 5337 5334 5330 5326 5323 5320 5317 5313 5310 5309
5569 5568 5566 5565 5563 5561 5560 5558 5556 5555 5554 5552 5551 5549 5547 5545 5543 5540 5537 5534 5531 5528 5525 5521 5518 5514 5511 5507 5503 5500 5496 5491 5488 5484 5480 5476 5472 5469 5465 5461 5457 5454 5450 5447 5443 5440 5437 5433 5429 5425 5420 5417 5413 5409 5404 5401 5398 5395 5391 5387 5382 5378 5374 5369 5364 5360 5356 5352 5348 5345 5342 5338 5336 5333 5329 5327 5324 5319 5315 5312 5310 5307 5304 5300 5299
5560 5558 5557 5556 5554 5552 5550 5548 5547 5545 5544 5542 5541 5539 5537 5535 5532 5529 5526 5523 5521 5518 5515 5512 5508 5504 5501 5497 5494 5491 5487 5482 5479 5476 5472 5469 5465 5461 5457 5453 5449 5445 5441 5438 5435 5432 5428 5425 5420 5416 5411 5407 5403 5399 5394 5390 5386 5383 5379 5375 5371 5368 5363 5359 5355 5351 5347 5343 5339 5336 5332 5328 5325 5322 5319 5316 5313 5308 5305 5302 5299 5297 5294 5291 5290
5550 5548 5547 5545 5543 5542 5540 5538 5537 5536 5534 5533 5531 5529 5527 5525 5522 5519 5516 5513 5510 5508 5505 5502 5498 5494 5491 5487 5484 5481 5478 5474 5470 5467 5463 5460 5456 5453 5449 5445 5441 5437 5433 5429 5426 5422 5418 5414 5410 5405 5400 5396 5393 5389 5384 5379 5376 5372 5368 5365 5361 5357 5353 5349 5345 5340 5336 5333 5329 5325 5322 5318 5314 5311 5307 5304 5301 5297 5294 5291 5289 5286 5284 5282 5280
5539 5538 5537 5535 5534 5532 5531 5529 5528 5526 5525 5523 5521 5519 5517 5514 5511 5509 5506 5503 5500 5497 5494 5491 5488 5485 5481 5478 5475 5472 5468 5465 5461 5458 5454 5451 5447 5443 5439 5435 5431 5428 5424 5420 5416 5413 5409 5404 5399 5395 5390 5385 5382 5377 5373 5369 5365 5361 5357 5354 5351 5347 5342 5338 5334 5328 5324 5321 5317 5313 5309 5306 5302 5299 5295 5292 5290 5286 5283 5280 5278 5276 5274 5271 5270
5530 5528 5527 5526 5524 5523 5522 5520 5519 5517 5515 5513 5511 5509 5507 5504 5501 5498 5496 5493 5490 5487 5484 5481 5477 5475 5471 5468 5465 5462 5458 5455 5452 5448 5444 5441 5437 5434 5430 5425 5421 5418 5413 5409 5405 5401 5397 5393 5389 5384 5379 5375 5371 5366 5362 5358 5354 5349 5345 5342 5339 5335 5331 5327 5322 5317 5312 5308 5304 5300 5296 5292 5288 5285 5282 5279 5277 5274 5271 5268 5266 5264 5263 5261 5259
5521 5520 5518 5517 5516 5514 5513 5511 5509 5507 5505 5503 5501 5499 5497 5494 5491 5488 5485 5482 5480 5476 5473 5471 5467 5465 5462 5458 5455 5452 5449 5445 5442 5438 5435 5431 5427 5424 5420 5415 5410 5407 5403 5397 5392 5389 5384 5380 5376 5372 5368 5363 5359 5355 5351 5346 5342 5339 5335 5331 5327 5324 5320 5315 5311 5306 5301 5297 5292 5288 5284 5279 5275 5272 5269 5266 5264 5261 5259 5257 5254 5252 5251 5249 5248
5512 5511 5510 5508 5507 5505 5503 5502 5500 5498 5495 5493 5491 5488 5486 5483 5481 5478 5475 5473 5470 5467 5464 5461 5458 5455 5452 5448 5445 5442 5439 5436 5432 5429 5425 5422 5417 5413 5410 5405 5400 5396 5391 5386 5381 5377 5372 5367 5363 5359 5355 5350 5347 5343 5339 5334 5330 5327 5323 5319 5316 5312 5308 5304 5299 5295 5290 5286 5281 5277 5273 5268 5264 5260 5257 5254 5252 5249 5247 5245 5242 5240 5239 5238 5237
5504 5502 5501 5499 5497 5496 5494 5492 5490 5488 5485 5483 5480 5478 5476 5474 5471 5469 5466 5463 5460 5457 5455 5451 5448 5445 5442 5438 5436 5433 5429 5426 5422 5419 5415 5412 5407 5402 5399 5395 5390 5384 5379 5374 5369 5364 5359 5355 5350 5345 5341 5337 5333 5330 5326 5322 5318 5314 5310 5306 5303 5299 5294 5290 5286 5281 5277 5273 5269 5264 5260 5255 5252 5248 5245 5242 5240 5238 5236 5234 5231 5229 5228 5227 5227
5495 5493 5491 5489 5488 5486 5484 5482 5480 5478 5476 5473 5471 5469 5466 5464 5462 5459 5456 5454 5451 5448 5445 5442 5438 5435 5432 5428 5425 5422 5419 5416 5412 5409 5405 5402 5397 5392 5387 5382 5378 5373 5367 5361 5356 5351 5346 5342 5337 5333 5329 5324 5321 5317 5314 5310 5306 5302 5298 5294 5290 5285 5281 5276 5272 5268 5263 5259 5255 5250 5246 5242 5238 5235 5232 5230 5229 5227 5225 5223 5221 5219 5218 5218 5218
5485 5484 5482 5480 5478 5477 5475 5473 5471 5469 5467 5464 5462 5459 5457 5454 5452 5450 5447 5444 5441 5438 5436 5433 5429 5426 5423 5419 5416 5412 5408 5405 5401 5398 5395 5391 5386 5381 5376 5370 5365 5360 5355 5349 5344 5339 5334 5329 5325 5321 5317 5313 5309 5306 5302 5298 5294 5290 5286 5282 5277 5273 5269 5264 5259 5254 5250 5246 5242 5237 5233 5229 5226 5223 5220 5219 5217 5216 5214 5212 5211 5210 5209 5209 5209
5476 5475 5473 5471 5469 5468 5466 5464 5462 5460 5458 5455 5453 5450 5448 5445 5442 5440 5437 5434 5432 5429 5426 5423 5420 5417 5414 5411 5407 5403 5398 5394 5390 5387 5383 5379 5374 5369 5364 5358 5353 5348 5342 5338 5333 5328 5323 5319 5314 5310 5306 5302 5299 5295 5291 5287 5283 5279 5275 5271 5266 5261 5257 5252 5247 5243 5238 5234 5230 5225 5221 5218 5215 5211 5209 5207 5206 5204 5203 5202 5201 5200 5200 5200 5200
5467 5466 5464 5462 5460 5458 5456 5455 5453 5450 5448 5446 5444 5441 5439 5436 5433 5431 5428 5425 5423 5420 5417 5414 5411 5408 5405 5402 5398 5393 5388 5384 5380 5376 5371 5367 5362 5356 5351 5346 5341 5336 5331 5327 5323 5318 5314 5309 5305 5301 5297 5293 5289 5285 5281 5278 5273 5269 5264 5260 5256 5251 5245 5241 5237 5232 5228 5223 5219 5214 5210 5207 5204 5201 5198 5196 5195 5193 5192 5191 5191 5191 5191 5191 5192
5459 5457 5455 5453 5451 5449 5447 5446 5443 5441 5439 5437 5435 5432 5430 5427 5425 5422 5419 5417 5414 5411 5408 5405 5401 5398 5395 5392 5388 5384 5378 5373 5369 5364 5358 5354 5349 5344 5339 5334 5329 5325 5321 5317 5313 5308 5304 5299 5295 5291 5287 5283 5279 5275 5271 5268 5264 5259 5254 5249 5245 5240 5235 5231 5227 5222 5218 5213 5209 5204 5200 5197 5193 5191 5188 5186 5184 5182 5181 5180 5180 5181 5182 5183 5184
5450 5448 5446 5444 5442 5440 5439 5437 5435 5433 5430 5428 5426 5424 5421 5419 5416 5414 5411 5408 5405 5402 5399 5395 5392 5388 5385 5381 5378 5373 5367 5362 5357 5352 5346 5341 5336 5332 5328 5323 5319 5314 5310 5306 5302 5298 5294 5289 5285 5281 5277 5274 5270 5266 5262 5258 5254 5250 5245 5240 5235 5231 5226 5221 5217 5213 5208 5204 5199 5195 5191 5187 5183 5180 5177 5175 5173 5171 5170 5170 5170 5171 5173 5175 5177
5441 5439 5437 5436 5434 5432 5430 5428 5426 5424 5422 5419 5417 5415 5413 5411 5408 5405 5403 5400 5397 5393 5390 5386 5382 5379 5374 5370 5366 5362 5356 5351 5346 5340 5335 5330 5325 5321 5316 5312 5308 5304 5300 5296 5292 5288 5284 5280 5276 5272 5268 5264 5261 5257 5253 5249 5245 5240 5235 5231 5226 5222 5218 5213 5208 5204 5199 5195 5190 5186 5182 5178 5174 5170 5167 5165 5163 5162 5161 5161 5162 5163 5165 5168 5170
5432 5430 5429 5427 5425 5424 5421 5419 5418 5416 5413 5411 5409 5407 5405 5402 5400 5397 5394 5391 5387 5384 5380 5376 5372 5368 5364 5359 5355 5350 5345 5340 5335 5330 5325 5320 5315 5311 5306 5301 5297 5294 5290 5286 5283 5279 5275 5271 5266 5262 5259 5255 5252 5248 5244 5241 5237 5232 5227 5223 5219 5215 5211 5206 5201 5196 5192 5187 5183 5178 5173 5169 5165 5162 5159 5157 5156 5155 5155 5155 5155 5157 5160 5163 5165
5423 5422 5420 5418 5417 5415 5413 5411 5409 5407 5405 5403 5401 5398 5396 5394 5391 5388 5385 5382 5378 5375 5371 5367 5362 5358 5353 5348 5344 5339 5334 5329 5324 5319 5315 5310 5305 5301 5296 5292 5288 5284 5280 5277 5273 5270 5266 5262 5258 5254 5250 5247 5244 5240 5236 5233 5229 5226 5222 5218 5214 5209 5205 5200 5195 5190 5186 5181 5176 5171 5167 5163 5159 5156 5153 5151 5150 5150 5150 5150 5152 5154 5157 5159 5162
5415 5413 5412 5410 5408 5406 5404 5402 5400 5398 5397 5394 5392 5390 5387 5384 5381 5379 5375 5372 5369 5365 5361 5357 5352 5347 5343 5338 5333 5328 5323 5319 5314 5309 5305 5300 5295 5291 5287 5282 5278 5274 5270 5267 5264 5260 5257 5254 5249 5245 5242 5238 5235 5232 5229 5226 5223 5220 5217 5213 5209 5204 5200 5195 5190 5186 5181 5176 5170 5166 5163 5159 5156 5153 5150 5148 5147 5147 5148 5149 5150 5153 5155 5157 5160
5406 5405 5403 5401 5400 5398 5396 5394 5392 5390 5388 5385 5383 5381 5378 5375 5372 5369 5366 5362 5359 5355 5350 5346 5342 5337 5332 5327 5322 5318 5313 5308 5303 5299 5295 5290 5286 5281 5277 5273 5269 5265 5261 5258 5255 5251 5248 5245 5241 5238 5234 5230 5227 5225 5222 5220 5218 5215 5212 5209 5205 5200 5196 5191 5186 5182 5177 5172 5167 5163 5160 5157 5154 5151 5149 5148 5147 5147 5148 5149 5150 5152 5154 5156 5159
5398 5396 5395 5393 5391 5389 5388 5386 5384 5381 5379 5377 5374 5371 5368 5365 5362 5359 5356 5352 5348 5344 5340 5335 5331 5326 5321 5317 5312 5307 5302 5298 5293 5289 5285 5280 5276 5272 5268 5264 5260 5256 5252 5249 5246 5243 5240 5237 5233 5230 5226 5223 5221 5219 5217 5215 5213 5211 5208 5205 5201 5197 5192 5188 5183 5179 5174 5169 5165 5162 5159 5156 5154 5152 5150 5149 5148 5148 5149 5150 5151 5153 5154 5156 5158
5389 5388 5386 5385 5383 5381 5379 5377 5375 5372 5370 5368 5365 5362 5359 5356 5353 5349 5346 5342 5338 5333 5329 5325 5320 5315 5311 5306 5301 5296 5292 5287 5283 5279 5274 5270 5267 5263 5259 5255 5251 5247 5244 5241 5238 5235 5233 5229 5226 5223 5220 5218 5216 5214 5212 5211 5209 5207 5204 5202 5198 5194 5189 5185 5181 5177 5172 5168 5164 5161 5159 5156 5154 5153 5151 5151 5150 5150 5151 5151 5152 5154 5155 5156 5158
5381 5379 5378 5376 5374 5372 5370 5368 5365 5363 5361 5358 5356 5353 5350 5347 5343 5340 5336 5332 5327 5323 5319 5314 5309 5305 5300 5295 5290 5286 5282 5277 5273 5268 5264 5261 5257 5253 5250 5246 5243 5240 5236 5233 5230 5228 5225 5223 5220 5217 5214 5212 5211 5209 5208 5207 5205 5203 5201 5199 5195 5191 5187 5183 5179 5176 5172 5168 5164 5162 5159 5157 5156 5154 5153 5152 5152 5152 5152 5153 5153 5154 5156 5157 5158
5372 5371 5369 5367 5365 5363 5361 5358 5356 5354 5351 5349 5346 5343 5340 5337 5333 5330 5326 5321 5317 5313 5308 5304 5299 5294 5289 5285 5280 5276 5271 5267 5263 5259 5255 5251 5248 5244 5241 5238 5235 5232 5229 5226 5223 5221 5219 5216 5214 5211 5209 5207 5206 5205 5204 5202 5201 5199 5198 5196 5193 5190 5186 5182 5179 5175 5172 5168 5165 5163 5160 5159 5157 5156 5155 5154 5154 5154 5154 5154 5155 5156 5157 5158 5159
5363 5362 5360 5358 5356 5353 5351 5349 5347 5344 5342 5339 5336 5333 5330 5326 5323 5319 5315 5311 5307 5302 5298 5294 5289 5284 5279 5275 5270 5266 5262 5258 5253 5250 5246 5243 5239 5236 5234 5231 5228 5225 5223 5220 5217 5215 5213 5210 5208 5205 5203 5202 5201 5200 5199 5198 5197 5196 5194 5192 5190 5188 5185 5182 5178 5175 5172 5169 5167 5164 5162 5160 5159 5158 5157 5156 5156 5156 5156 5156 5156 5157 5157 5158 5159